Caslav, Czech Republic

9:30 AM CEST on October 22, 2017 (GMT +0200)
Caslav

Weather History for LKCV - November, 2012

Change the Weather History Date:

Monday, November 19, 2012

  Actual Average Record
Temperature  
Mean Temperature 40 °F -  
Max Temperature 46 °F - - ()
Min Temperature 33 °F - - ()
Degree Days  
Heating Degree Days 26    
Moisture  
Dew Point 38 °F    
Average Humidity 92    
Maximum Humidity 100    
Minimum Humidity 76    
Precipitation  
Precipitation 0.00 in - - ()
Sea Level Pressure  
Sea Level Pressure 30.11 in    
Wind  
Wind Speed 3 mph ()    
Max Wind Speed 8 mph    
Max Gust Speed -    
Visibility 5.7 miles    
Events      
T = Trace of Precipitation, MM = Missing Value Source: Averaged Metar Reports

Daily Weather History Graph

Daily Weather History Graph

Search for Another Location

Airport or City:

Trip Planner

Search our weather history database for the weather conditions in past years. The results will help you decide how hot, cold, wet, or windy it might be!

Date:

Astronomy

Nov. 19, 2012 Rise Set
Actual Time 7:17 AM CET 4:09 PM CET
Civil Twilight 6:41 AM CET 4:45 PM CET
Nautical Twilight 6:02 AM CET 5:25 PM CET
Astronomical Twilight 5:23 AM CET 6:03 PM CET
Moon 11:59 AM CET (11/19) 10:31 PM CET (11/19)
Length of Visible Light 10h 03m
Length of Day
8h 51m
Waxing Crescent, 38% of the Moon is Illuminated
Nov 19
Waxing Crescent
Nov 20
First Quarter
Nov 28
Full
Dec 6
Last Quarter
Dec 13
New

Hourly Weather History & Observations

Time (CET) Temp. Windchill Dew Point Humidity Pressure Visibility Wind Dir Wind Speed Gust Speed Precip Events Conditions
12:00 AM 39.2 °F 34.2 °F 37.4 °F 93% 30.06 in 6.2 mi SE 6.9 mph - N/A   Overcast
1:00 AM 39.2 °F 35.9 °F 37.4 °F 93% 30.06 in 6.2 mi SSE 4.6 mph - N/A   Overcast
2:15 AM 39.2 °F 35.9 °F 37.4 °F 93% 30.06 in 6.2 mi SE 4.6 mph - N/A   Overcast
3:00 AM 39.2 °F - 37.4 °F 93% 30.06 in 6.2 mi SE 2.3 mph - N/A   Overcast
4:00 AM 39.2 °F 35.9 °F 37.4 °F 93% 30.06 in 6.2 mi SE 4.6 mph - N/A   Overcast
5:00 AM 37.4 °F - 35.6 °F 93% 30.09 in 6.2 mi SE 2.3 mph - N/A   Overcast
6:00 AM 37.4 °F 33.8 °F 35.6 °F 93% 30.09 in 6.2 mi SSE 4.6 mph - N/A   Mostly Cloudy
7:00 AM 37.4 °F - 37.4 °F 100% 30.09 in 6.2 mi Calm Calm - N/A   Mostly Cloudy
8:00 AM 39.2 °F - 37.4 °F 93% 30.12 in 6.2 mi ESE 2.3 mph - N/A   Mostly Cloudy
9:00 AM 39.2 °F 37.0 °F 37.4 °F 93% 30.12 in 6.2 mi South 3.5 mph - N/A   Mostly Cloudy
10:00 AM 41.0 °F 39.0 °F 37.4 °F 87% 30.12 in 6.2 mi SE 3.5 mph - N/A   Mostly Cloudy
11:00 AM 42.8 °F 41.1 °F 37.4 °F 81% 30.12 in 6.2 mi SE 3.5 mph - N/A   Mostly Cloudy
12:00 PM 44.6 °F 43.1 °F 39.2 °F 81% 30.12 in - ESE 3.5 mph - N/A   Clear
1:00 PM 46.4 °F - 39.2 °F 76% 30.12 in - Variable 2.3 mph - N/A   Clear
2:00 PM 46.4 °F 44.3 °F 41.0 °F 81% 30.12 in - SE 4.6 mph - N/A   Clear
3:00 PM 46.4 °F 44.3 °F 41.0 °F 81% 30.12 in - SE 4.6 mph - N/A   Clear
4:00 PM 42.8 °F 38.0 °F 41.0 °F 93% 30.12 in - South 8.1 mph - N/A   Clear
5:00 PM 39.2 °F - 39.2 °F 100% 30.12 in - Variable 1.2 mph - N/A   Clear
6:00 PM 37.4 °F - 37.4 °F 100% 30.15 in - NNE 2.3 mph - N/A   Clear
7:00 PM 37.4 °F - 37.4 °F 100% 30.15 in - Calm Calm - N/A   Clear
8:00 PM 33.8 °F - 33.8 °F 100% 30.15 in 5.0 mi Calm Calm - N/A   Unknown
9:00 PM 33.8 °F 29.6 °F 33.8 °F 100% 30.15 in 3.7 mi SW 4.6 mph - N/A   Mostly Cloudy
10:00 PM 37.4 °F - 37.4 °F 100% 30.15 in 3.7 mi Calm Calm - N/A   Overcast
11:00 PM 37.4 °F - 37.4 °F 100% 30.15 in 3.7 mi Calm Calm - N/A   Overcast